Weather in Nezhinskiy

Russia / Stavropol Krai     43°55′47″N   42°41′18″E
temp.,
°C
wind,
m/s
gust,
m/s
humid.,
%
clouds,
%
prec.,
mm/h
press.,
hPa
HPBL,
m
18 may, wed
wed1800:00+8wsw348226 0.1 101853
03:00+7sw227956 0.1 101713
06:00+8s22798 0.0 101648
09:00+14e446029 0.0 10141011
12:00+17e555655 0.0 10121340
15:00+17ese766131 0.0 10101220
18:00+15ese58736 0.0 1010631
21:00+11s33895 0.0 101229
19 may, thu
thu1900:00+10ssw33780 0.0 101122
03:00+9sw33544 0.0 101226
06:00+10wnw23649 0.0 101479
09:00+13nnw337798 0.0 1015826
12:00+10nnw5694100 0.1 1017617
15:00+7nw4696100 0.9 1019711
18:00+6wnw3891100 0.5 1020656
21:00+5wnw4994100 1.7 1021730
20 may, fri
fri2000:00+4w51288100 2.4 1021536
03:00+5w6147992 2.4 1020803
06:00+6w8167381 0.0 10211083
09:00+10wnw91366100 0.0 10211465
12:00+11wnw8116495 0.4 10201607
15:00+12nw7961100 0.8 10191672
18:00+9nw6108436 0.8 1021911
21:00+7w6108677 1.3 1022501
21 may, sat
sat2100:00+6wsw498886 0.0 1022253
03:00+5sw33865 0.0 102135
06:00+6ssw33785 0.0 102064
09:00+12nw235586 0.0 1017974
12:00+16nnw444736 0.0 10141661
15:00+17n2349100 0.0 10121545
18:00+12nnw4781100 0.4 1013204
21:00+10sw3489100 2.2 101393
22 may, sun
sun2200:00+8sw348318 0.1 101247
03:00+8wsw337555 0.1 101220
06:00+9sw23725 0.0 101247
09:00+13n33584 0.0 1011803
12:00+16ene325792 0.0 10091523
15:00+16ene446391 0.0 10071141
18:00+14e357786 0.0 1007561
21:00+11nnw1190100 0.4 100716